San Jose, Costa Rica

9:34 PM CST on April 21, 2018 (GMT -0600)
Juan Santamaria International

Weather History for MROC - May, 2013

Change the Weather History Date:

Thursday, May 9, 2013

  Actual Average Record
Temperature  
Mean Temperature 76 °F -  
Max Temperature 87 °F 81 °F 88 °F (2016)
Min Temperature 65 °F 65 °F 61 °F (2012)
Cooling Degree Days 11    
Growing Degree Days 26 (Base 50)    
Moisture  
Dew Point 63 °F    
Average Humidity 69    
Maximum Humidity 94    
Minimum Humidity 30    
Precipitation  
Precipitation 0.75 in 0.36 in - ()
Sea Level Pressure  
Sea Level Pressure 30.04 in    
Wind  
Wind Speed 9 mph ()    
Max Wind Speed 16 mph    
Max Gust Speed -    
Visibility 7.2 miles    
Events Fog , Rain , Thunderstorm    
Averages and records for this station are not official NWS values.
T = Trace of Precipitation, MM = Missing Value Source: Averaged Metar Reports

Daily Weather History Graph

Daily Weather History Graph

Search for Another Location

Airport or City:

Astronomy

May. 09, 2013 Rise Set
Actual Time 5:17 AM CST 5:49 PM CST
Civil Twilight 4:54 AM CST 6:11 PM CST
Nautical Twilight 4:29 AM CST 6:37 PM CST
Astronomical Twilight 4:02 AM CST 7:03 PM CST
Moon 4:56 AM CST (5/9) 5:44 PM CST (5/9)
Length of Visible Light 13h 16m
Length of Day
12h 32m
Waning Crescent, 0% of the Moon is Illuminated
May 9
Waning Crescent
May 9
New
May 17
First Quarter
May 24
Full
May 31
Last Quarter

Hourly Weather History & Observations

Time (CST) Temp. Heat Index Dew Point Humidity Pressure Visibility Wind Dir Wind Speed Gust Speed Precip Events Conditions
12:00 AM 70 °F - 59 °F 60% 29.90 in 12 mi East 11.5 mph - -   Scattered Clouds
12:00 AM 69.8 °F - 59.0 °F 68% 30.10 in 6.2 mi East 11.5 mph - N/A   Partly Cloudy
1:00 AM 69.8 °F - 59.0 °F 68% 30.08 in 6.2 mi East 9.2 mph - N/A   Partly Cloudy
2:00 AM 69.8 °F - 59.0 °F 68% 30.06 in 6.2 mi East 13.8 mph - N/A   Partly Cloudy
3:00 AM 68 °F - 58 °F 63% 29.88 in 12 mi NE 11.5 mph - -   Scattered Clouds
3:00 AM 68.0 °F - 59.0 °F 73% 30.05 in 6.2 mi NE 11.5 mph - N/A   Partly Cloudy
4:00 AM 68.0 °F - 57.2 °F 68% 30.05 in - ENE 13.8 mph - N/A   Clear
5:00 AM 68.0 °F - 57.2 °F 68% 30.05 in - ENE 13.8 mph - N/A   Clear
6:00 AM 69 °F - 58 °F 60% 29.94 in 12 mi ENE 12.7 mph - -   Clear
6:00 AM 69.8 °F - 59.0 °F 68% 30.07 in - ENE 12.7 mph - N/A   Clear
7:00 AM 73.4 °F - 59.0 °F 61% 30.09 in - ENE 8.1 mph - N/A   Clear
8:00 AM 78.8 °F - 55.4 °F 44% 30.10 in - ESE 9.2 mph - N/A   Clear
9:00 AM 82 °F - 56 °F 30% 29.94 in 12 mi ESE 10.4 mph - -   Clear
9:00 AM 82.4 °F 81.7 °F 55.4 °F 39% 30.09 in - ESE 10.4 mph - N/A   Clear
10:00 AM 84.2 °F 83.0 °F 55.4 °F 37% 30.09 in - ESE 10.4 mph - N/A   Clear
11:00 AM 84.2 °F 85.0 °F 62.6 °F 48% 30.08 in 6.2 mi SSW 8.1 mph - N/A   Scattered Clouds
12:00 PM 83 °F - 65 °F 44% 29.90 in 12 mi SSW 8.1 mph - -   Scattered Clouds
12:00 PM 84.2 °F 85.6 °F 64.4 °F 51% 30.08 in 6.2 mi WSW 16.1 mph - N/A   Scattered Clouds
1:00 PM 84.2 °F 86.6 °F 66.2 °F 55% 30.07 in 6.2 mi WSW 12.7 mph - N/A   Scattered Clouds
1:29 PM 78.8 °F - 66.2 °F 65% 30.06 in 6.2 mi SW 12.7 mph - N/A Rain Rain
2:00 PM 68.0 °F - 66.2 °F 94% 30.05 in 1.2 mi South 6.9 mph - N/A Rain , Thunderstorm Thunderstorms and Rain
2:35 PM 68.0 °F - 66.2 °F 94% 30.05 in 5.0 mi North 5.8 mph - N/A Rain Light Rain
3:00 PM 69 °F - 67 °F 89% 29.92 in 5 mi ESE 2.3 mph - - Rain Light Rain
3:00 PM 68.0 °F - 66.2 °F 94% 30.05 in - North - - N/A Rain Light Rain
4:00 PM 71.6 °F - 68.0 °F 88% 30.05 in 6.2 mi Calm Calm - N/A   Mostly Cloudy
5:00 PM 73.4 °F - 68.0 °F 83% 30.06 in 6.2 mi Calm Calm - N/A   Mostly Cloudy
6:00 PM 73 °F - 67 °F 77% 29.90 in 9 mi WSW 2.3 mph - -   Partly Cloudy
6:00 PM 73.4 °F - 68.0 °F 83% 30.07 in 6.2 mi WSW 2.3 mph - N/A   Mostly Cloudy
7:00 PM 71.6 °F - 68.0 °F 88% 30.08 in 6.2 mi South 4.6 mph - N/A   Mostly Cloudy
8:00 PM 71.6 °F - 64.4 °F 78% 30.12 in 6.2 mi East 3.5 mph - N/A   Mostly Cloudy
9:00 PM 71 °F - 67 °F 84% 29.97 in 12 mi NNW 3.5 mph - -   Scattered Clouds
9:00 PM 71.6 °F - 68.0 °F 88% 30.14 in 6.2 mi NNW 3.5 mph - N/A   Scattered Clouds
10:00 PM 69.8 °F - 66.2 °F 88% 30.14 in 6.2 mi WNW 3.5 mph - N/A Fog Scattered Clouds
11:00 PM 69.8 °F - 66.2 °F 88% 30.15 in 3.1 mi South 3.5 mph - N/A   Scattered Clouds